Tracking 29892 objects as of 21-Nov-2024
HD Live streaming from Space Station
objects crossing your sky now

STARLINK-30075

Track STARLINK-30075 now!
10-day predictions
STARLINK-30075 is classified as:


NORAD ID: 57616
Int'l Code: 2023-119Q
Perigee: 565.3 km
Apogee: 567.2 km
Inclination: 43.0 °
Period: 95.8 minutes
Semi major axis: 6937 km
RCS: Unknown
Launch date: August 11, 2023
Source: United States (US)
Launch site: AIR FORCE EASTERN TEST RANGE (AFETR)
Your satellite tracking list
Your tracking list is empty




NASA's NSSDC Master Catalog

Two Line Element Set (TLE):
1 57616U 23119Q   24325.86209963 -.00000270  00000-0 -48796-5 0  9990
2 57616  43.0033 136.7974 0001379 272.4339  87.6346 15.02537868 71790
Source of the keplerian elements: AFSPC